GW2173 Weather Reports


time (UTC)temp
C
wind
direction
speed
KPH
gust
KPH
rain 1hr
cm
rain 24hr
cm
rain mn
cm
humidity
%
barometer
mb
20260906133805 20 84 6.4 19.3 0.00 0.00 0.00 85 968.6
20260906133305 20 52 6.4 19.3 0.00 0.00 0.00 87 969.0
20260906132804 20 79 8.0 19.3 0.00 0.00 0.00 86 968.9
20260906132306 20 71 4.8 19.3 0.00 0.00 0.00 87 968.0
20260906131246 20 94 4.8 19.3 0.00 0.00 0.00 88 967.6
20260906130746 19 122 4.8 19.3 0.00 0.00 0.00 89 966.0
20260906130245 19 101 4.8 19.3 0.00 0.00 0.00 88 965.2
20260906125745 19 101 6.4 19.3 0.00 0.00 0.00 88 944.3
20260906125244 18 100 4.8 19.3 0.00 0.00 0.00 89 957.5
20260906124744 18 77 4.8 19.3 0.00 0.00 0.00 89 943.3
20260906123729 18 109 1.6 19.3 0.00 0.00 0.00 92 942.6
20260906123228 18 93 3.2 19.3 0.00 0.00 0.00 91 942.7
20260906122211 18 97 1.6 19.3 0.00 0.00 0.00 92 963.4
20260906121711 18 92 8.0 19.3 0.00 0.00 0.00 92 944.3
20260906121210 18 86 3.2 19.3 0.00 0.00 0.00 93 938.9
20260906120709 18 96 3.2 19.3 0.00 0.00 0.00 93 961.6
20260906120208 17 87 1.6 19.3 0.00 0.00 0.00 94 968.9
20260906115707 17 69 3.2 19.3 0.00 0.00 0.00 94 966.9
20260906115207 17 66 1.6 19.3 0.00 0.00 0.00 94 937.3
20260906114707 17 79 3.2 19.3 0.00 0.00 0.00 94 963.8
20260906113651 17 76 4.8 19.3 0.00 0.00 0.00 94 947.9
20260906113150 17 77 3.2 19.3 0.00 0.00 0.00 94 952.6
20260906112650 17 64 3.2 19.3 0.00 0.00 0.00 94 949.8
20260906112149 17 80 0.0 19.3 0.00 0.00 0.00 94 948.4
20260906111648 17 80 1.6 19.3 0.00 0.00 0.00 94 952.1
20260906111148 17 77 3.2 19.3 0.00 0.00 0.00 94 952.1
20260906110648 18 75 1.6 19.3 0.00 0.00 0.00 94 945.0
20260906110148 18 88 4.8 19.3 0.00 0.00 0.00 93 912.6
20260906105648 18 74 1.6 19.3 0.00 0.00 0.00 93 923.6
20260906105148 18 101 3.2 19.3 0.00 0.00 0.00 93 921.7
20260906104648 18 82 4.8 19.3 0.00 0.00 0.00 94 923.1
20260906104148 18 85 4.8 19.3 0.00 0.00 0.00 94 916.7
20260906103647 18 102 6.4 19.3 0.00 0.00 0.00 94 930.3
20260906103146 18 82 4.8 19.3 0.00 0.00 0.00 93 932.4
20260906102645 18 102 3.2 19.3 0.00 0.00 0.00 93 934.2
20260906102145 18 79 4.8 19.3 0.00 0.00 0.00 94 939.4
20260906101644 18 73 3.2 19.3 0.00 0.00 0.00 94 957.4
20260906101143 18 89 3.2 19.3 0.00 0.00 0.00 94 922.8
20260906100643 18 100 6.4 19.3 0.00 0.00 0.00 93 912.8
20260906100142 18 68 1.6 19.3 0.00 0.00 0.00 94 920.1
20260906095642 18 83 3.2 19.3 0.00 0.00 0.00 94 941.0
20260906095142 18 101 3.2 19.3 0.00 0.00 0.00 94 915.8
20260906094642 18 108 4.8 19.3 0.00 0.00 0.00 94 921.3
20260906094142 18 81 4.8 19.3 0.00 0.00 0.00 94 912.5
20260906093642 18 76 4.8 19.3 0.00 0.00 0.00 94 900.8
20260906093142 18 96 4.8 19.3 0.00 0.00 0.00 94 912.9
20260906092642 18 98 3.2 19.3 0.00 0.00 0.00 94 913.7
20260906092142 19 115 6.4 19.3 0.00 0.00 0.00 94 919.5
20260906091642 19 125 4.8 19.3 0.00 0.00 0.00 94 928.8
20260906091142 19 120 4.8 19.3 0.00 0.00 0.00 94 962.5
20260906090642 19 108 3.2 19.3 0.00 0.00 0.00 94 983.4
20260906090142 19 86 3.2 19.3 0.00 0.00 0.00 94 983.0
20260906085641 19 103 1.6 19.3 0.00 0.00 0.00 94 984.9
20260906085141 20 100 1.6 19.3 0.00 0.00 0.00 94 986.1
20260906084640 20 87 1.6 19.3 0.00 0.00 0.00 94 986.3
20260906084141 20 98 3.2 19.3 0.00 0.00 0.00 94 987.1
20260906083641 20 78 1.6 19.3 0.00 0.00 0.00 95 986.9
20260906083141 20 74 0.0 19.3 0.00 0.00 0.00 95 985.6
20260906082640 20 81 3.2 19.3 0.00 0.00 0.00 95 986.0
20260906082139 20 87 3.2 19.3 0.00 0.00 0.00 95 982.6
20260906081639 20 83 3.2 19.3 0.00 0.00 0.00 96 982.7
20260906081140 20 84 3.2 19.3 0.00 0.00 0.00 96 983.7
20260906080125 20 98 0.0 19.3 0.00 0.00 0.00 97 981.8
20260906075625 20 40 3.2 19.3 0.00 0.00 0.00 97 984.3
20260906075123 20 88 3.2 19.3 0.00 0.00 0.00 97 985.4
20260906074623 20 95 3.2 19.3 0.00 0.00 0.00 97 981.3
20260906074123 21 75 1.6 19.3 0.00 0.00 0.00 97 980.9
20260906073622 21 83 3.2 19.3 0.00 0.00 0.00 98 980.0
20260906073122 21 98 1.6 19.3 0.00 0.00 0.00 97 981.3
20260906072622 21 84 3.2 19.3 0.00 0.00 0.00 97 983.7
20260906072122 21 90 3.2 19.3 0.00 0.00 0.00 97 984.0
20260906071621 21 103 3.2 19.3 0.00 0.00 0.00 97 983.6
20260906071121 21 105 4.8 19.3 0.00 0.00 0.00 97 984.1
20260906070621 21 102 3.2 19.3 0.00 0.00 0.00 98 984.9
20260906070121 21 99 1.6 19.3 0.00 0.00 0.00 98 982.2
20260906065621 21 116 1.6 19.3 0.00 0.00 0.00 98 981.3
20260906065119 21 94 3.2 19.3 0.00 0.00 0.00 98 987.4
20260906064619 21 94 3.2 19.3 0.00 0.00 0.00 98 988.8
20260906064120 21 83 1.6 19.3 0.00 0.00 0.00 98 989.5
20260906063619 21 81 1.6 19.3 0.00 0.00 0.00 98 989.9
20260906063118 21 111 3.2 19.3 0.00 0.00 0.00 98 990.0
20260906062617 21 96 3.2 19.3 0.00 0.00 0.00 98 990.2
20260906062117 21 90 0.0 19.3 0.00 0.00 0.00 98 990.3
20260906061103 21 91 4.8 19.3 0.00 0.00 0.00 98 990.5
20260906055532 21 97 3.2 19.3 0.00 0.00 0.00 99 991.0
20260906055030 21 92 1.6 19.3 0.00 0.00 0.00 99 990.9
20260906054530 21 94 0.0 19.3 0.00 0.00 0.00 99 991.0
20260906054029 21 87 3.2 19.3 0.00 0.00 0.00 99 989.8
20260906053529 21 64 1.6 19.3 0.00 0.00 0.00 99 981.9
20260906052514 21 60 3.2 19.3 0.00 0.00 0.00 99 977.9
20260906051457 21 90 1.6 19.3 0.00 0.00 0.00 99 985.0
20260906050956 21 93 0.0 19.3 0.00 0.00 0.00 99 987.8
20260906050455 21 92 0.0 19.3 0.00 0.00 0.00 99 988.9
20260906045955 21 93 1.6 19.3 0.00 0.00 0.00 99 972.4
20260906045454 21 92 0.0 19.3 0.00 0.00 0.00 99 969.8
20260906044438 22 109 0.0 19.3 0.00 0.00 0.00 99 975.1
20260906043937 22 108 0.0 19.3 0.00 0.00 0.00 99 973.2
20260906043436 22 116 3.2 19.3 0.00 0.00 0.00 99 970.5
20260906042420 22 120 0.0 19.3 0.00 0.00 0.00 98 986.1
20260906041919 22 128 1.6 19.3 0.00 0.00 0.00 98 987.7
20260906041419 22 138 0.0 19.3 0.00 0.00 0.00 98 982.0
20260906040919 22 137 1.6 19.3 0.00 0.00 0.00 98 982.9
20260906040418 22 137 3.2 19.3 0.00 0.00 0.00 98 984.2
20260906035917 22 139 3.2 19.3 0.00 0.00 0.69 98 972.9
20260906035416 22 137 3.2 19.3 0.00 0.00 0.69 97 981.0
20260906034915 22 139 3.2 19.3 0.00 0.00 0.69 97 977.0
20260906034415 22 133 3.2 19.3 0.00 0.00 0.69 97 971.8
20260906033358 22 136 4.8 19.3 0.00 0.00 0.69 97 972.1
20260906032858 22 151 3.2 19.3 0.00 0.00 0.69 97 972.1
20260906032358 22 154 3.2 19.3 0.00 0.00 0.69 96 978.7
20260906031857 22 158 4.8 19.3 0.00 0.00 0.69 96 974.0
20260906031357 22 159 4.8 19.3 0.00 0.00 0.69 96 979.5
20260906030856 22 129 1.6 19.3 0.00 0.00 0.69 96 981.3
20260906030355 22 128 3.2 19.3 0.00 0.00 0.69 96 982.2
20260906025338 22 134 4.8 19.3 0.00 0.00 0.69 95 989.0
20260906024838 22 137 6.4 19.3 0.00 0.00 0.69 95 978.2
20260906023823 23 137 8.0 19.3 0.00 0.00 0.69 95 977.4
20260906023322 23 137 6.4 19.3 0.00 0.00 0.69 94 978.0
20260906021234 23 125 6.4 19.3 0.00 0.00 0.69 94 982.4
20260906020734 23 121 6.4 19.3 0.00 0.00 0.69 93 977.6
20260906015718 23 118 4.8 19.3 0.00 0.00 0.69 93 981.6
20260906014702 23 125 4.8 19.3 0.00 0.00 0.69 92 983.6
20260906014201 23 115 4.8 19.3 0.00 0.00 0.69 92 985.6
20260906013700 23 112 4.8 19.3 0.00 0.00 0.69 91 986.9
20260906013200 23 119 4.8 19.3 0.00 0.00 0.69 91 982.2
20260906012659 23 125 6.4 19.3 0.00 0.00 0.69 91 975.5
20260906011129 24 118 4.8 19.3 0.00 0.00 0.69 89 982.7
20260906010628 24 101 4.8 19.3 0.00 0.00 0.69 89 945.0
20260906010128 24 86 6.4 19.3 0.00 0.00 0.69 88 945.3
20260906005628 25 87 3.2 19.3 0.00 0.00 0.69 88 973.6
20260906005128 25 38 0.0 19.3 0.00 0.00 0.69 88 968.2
20260906004628 25 34 3.2 19.3 0.00 0.00 0.69 87 986.0
20260906004128 25 30 3.2 19.3 0.00 0.00 0.69 86 992.6
20260906003627 25 25 3.2 19.3 0.00 0.00 0.69 85 996.1
20260906003126 25 16 3.2 19.3 0.00 0.00 0.69 85 998.3
20260906002625 25 14 3.2 19.3 0.00 0.00 0.69 84 980.8
20260906002125 26 353 3.2 19.3 0.00 0.00 0.69 84 981.8
20260906001625 26 321 3.2 19.3 0.00 0.00 0.69 84 980.8
20260906001124 26 320 3.2 19.3 0.00 0.00 0.69 83 967.4
20260906000107 26 319 1.6 19.3 0.00 0.00 0.69 83 964.4
20260905235607 26 320 3.2 19.3 0.00 0.00 0.69 82 961.3
20260905235106 26 319 3.2 19.3 0.00 0.00 0.69 82 938.3
20260905234606 26 313 3.2 19.3 0.00 0.00 0.69 83 979.4
20260905234106 26 321 3.2 19.3 0.00 0.00 0.69 82 964.9
20260905233049 27 315 3.2 19.3 0.00 0.00 0.69 79 961.4
20260905225932 28 341 1.6 19.3 0.00 0.00 0.69 75 938.9
20260905225431 28 337 3.2 19.3 0.00 0.00 0.69 74 888.3
20260905224930 28 339 1.6 19.3 0.00 0.00 0.69 74 918.7
20260905223914 28 328 3.2 19.3 0.00 0.00 0.69 73 935.0
20260905223414 28 323 3.2 19.3 0.00 0.00 0.69 74 892.5
20260905222914 28 334 3.2 19.3 0.00 0.00 0.69 73 913.5
20260905222414 28 331 3.2 19.3 0.00 0.00 0.69 73 927.4
20260905221914 28 341 4.8 19.3 0.00 0.00 0.69 72 924.2
20260905221413 28 339 4.8 19.3 0.00 0.00 0.69 72 958.9
20260905220913 28 337 1.6 19.3 0.00 0.00 0.69 73 940.4
20260905215857 28 320 4.8 19.3 0.00 0.00 0.69 72 965.6
20260905214840 28 348 4.8 19.3 0.00 0.00 0.69 71 950.0
20260905214340 28 338 1.6 19.3 0.00 0.00 0.69 73 947.4
20260905213840 28 322 1.6 19.3 0.00 0.00 0.69 72 946.5
20260905212825 28 309 3.2 19.3 0.00 0.00 0.69 72 1000.6
20260905212324 28 327 3.2 19.3 0.00 0.00 0.69 70 1002.6
20260905211824 28 261 4.8 19.3 0.00 0.00 0.69 71 1002.2
20260905210809 29 281 4.8 19.3 0.00 0.00 0.69 70 1002.3
20260905210308 30 296 1.6 19.3 0.00 0.00 0.69 71 1002.6
20260905205253 28 309 1.6 19.3 0.00 0.00 0.69 70 1002.2
20260905204752 28 310 4.8 19.3 0.00 0.00 0.69 70 1002.5
20260905204251 28 7 3.2 19.3 0.00 0.00 0.69 70 1002.9
20260905203751 28 294 3.2 19.3 0.00 0.00 0.69 70 1002.8
20260905203250 28 322 3.2 19.3 0.00 0.00 0.69 72 1003.8
20260905202750 28 303 6.4 19.3 0.00 0.00 0.69 70 1003.8
20260905201734 28 295 3.2 19.3 0.00 0.00 0.69 70 1004.1
20260905200718 28 265 3.2 19.3 0.00 0.00 0.69 69 1004.2
20260905200217 28 323 0.0 19.3 0.00 0.00 0.69 72 1004.6
20260905195716 28 263 8.0 19.3 0.00 0.00 0.69 71 1004.7
20260905194659 28 226 4.8 19.3 0.00 0.00 0.69 73 1004.8
20260905194159 28 254 4.8 19.3 0.00 0.00 0.69 71 1004.9
20260905193658 28 249 4.8 19.3 0.00 0.00 0.69 71 1005.3
20260905193158 28 243 6.4 19.3 0.00 0.00 0.69 71 1004.9
20260905192658 28 269 4.8 19.3 0.00 0.00 0.69 72 1005.3
20260905191641 28 278 1.6 19.3 0.00 0.00 0.69 73 1005.6
20260905190625 28 247 4.8 19.3 0.00 0.00 0.69 74 1005.8
20260905190124 27 244 3.2 19.3 0.00 0.00 0.69 74 1005.8
20260905185623 28 236 4.8 19.3 0.00 0.00 0.69 75 1007.9
20260905185123 28 240 3.2 19.3 0.00 0.00 0.69 73 1007.9
20260905184108 28 228 6.4 19.3 0.00 0.00 0.69 73 1007.9
20260905183607 28 231 4.8 19.3 0.00 0.00 0.69 73 1007.8
20260905183107 28 262 3.2 19.3 0.00 0.00 0.69 75 1008.1
20260905182607 28 263 3.2 19.3 0.00 0.00 0.69 76 1008.2
20260905182106 27 157 0.0 19.3 0.00 0.00 0.69 75 1008.6
20260905181606 27 159 3.2 19.3 0.00 0.00 0.69 75 1008.7
20260905181105 27 175 0.0 19.3 0.00 0.00 0.69 78 1008.8
20260905180604 27 243 1.6 19.3 0.00 0.00 0.69 79 1009.0
20260905175548 27 268 4.8 19.3 0.00 0.00 0.69 76 1009.2
20260905175048 27 257 3.2 19.3 0.00 0.00 0.69 79 1009.1
20260905174547 27 251 3.2 19.3 0.00 0.00 0.69 78 1009.0
20260905174046 27 239 3.2 19.3 0.00 0.00 0.69 78 1009.2
20260905173031 27 246 3.2 19.3 0.00 0.00 0.69 79 1003.5
20260905172531 27 252 0.0 19.3 0.00 0.00 0.69 79 1003.4
20260905172030 27 230 4.8 19.3 0.00 0.00 0.69 78 1003.7
20260905171529 27 230 1.6 19.3 0.00 0.00 0.69 79 1003.9
20260905171028 27 136 1.6 19.3 0.00 0.00 0.69 80 1004.1
20260905170527 26 254 1.6 19.3 0.00 0.00 0.69 84 1003.1
20260905170027 26 195 4.8 19.3 0.00 0.00 0.69 81 1002.7
20260905165526 26 154 0.0 19.3 0.00 0.00 0.69 83 1002.5
20260905165025 26 177 6.4 19.3 0.00 0.00 0.69 83 1002.4
20260905164525 25 162 8.0 19.3 0.00 0.00 0.69 84 1003.0
20260905164025 25 166 9.7 19.3 0.00 0.00 0.69 82 1004.2
20260905163525 25 148 6.4 19.3 0.00 0.00 0.69 85 1004.7
20260905163024 25 119 8.0 19.3 0.00 0.00 0.69 85 1006.8
20260905162524 25 146 9.7 19.3 0.00 0.00 0.69 85 1008.9
20260905161507 25 135 9.7 19.3 0.00 0.00 0.69 84 1010.5
20260905161007 25 222 3.2 19.3 0.00 0.00 0.69 83 1010.8
20260905160506 25 2 3.2 19.3 0.00 0.00 0.69 83 1010.6
20260905160006 25 23 3.2 19.3 0.00 0.00 0.69 83 1010.9
20260905155504 25 39 1.6 19.3 0.00 0.00 0.69 84 1010.9
20260905155004 25 108 4.8 19.3 0.00 0.00 0.69 84 1010.7
20260905154503 25 81 3.2 19.3 0.00 0.00 0.69 86 1010.6
20260905154003 25 329 1.6 19.3 0.00 0.00 0.69 88 1010.6
20260905152945 25 85 1.6 19.3 0.00 0.00 0.69 90 1006.6
20260905152445 24 24 0.0 19.3 0.00 0.00 0.69 89 1006.6
20260905151945 23 47 3.2 19.3 0.00 0.00 0.69 90 1006.7
20260905151445 23 25 3.2 19.3 0.00 0.00 0.69 90 1007.3
20260905150944 23 34 1.6 19.3 0.00 0.00 0.69 92 1007.0
20260905145927 23 31 0.0 19.3 0.00 0.00 0.69 96 1004.2
20260905144912 22 30 3.2 19.3 0.00 0.00 0.69 98 997.5
20260905144411 22 65 1.6 19.3 0.00 0.00 0.69 98 995.9
20260905143910 22 71 1.6 19.3 0.00 0.00 0.69 99 996.4
20260905142855 22 38 6.4 19.3 0.00 0.00 0.69 100 999.9
20260905142355 22 60 4.8 19.3 0.00 0.00 0.69 100 1000.1
20260905141854 21 50 6.4 19.3 0.00 0.00 0.69 100 999.8
20260905141354 21 39 6.4 19.3 0.00 0.00 0.69 100 999.3
20260905140853 21 26 4.8 19.3 0.00 0.00 0.69 100 999.1
20260905140352 21 22 6.4 19.3 0.00 0.00 0.69 100 998.9
20260905135851 21 303 4.8 19.3 0.00 0.00 0.69 100 998.1
20260905135351 21 342 3.2 20.9 0.03 0.00 0.69 100 997.9
20260905134850 21 3 8.0 20.9 0.03 0.00 0.69 100 998.0
20260905134350 21 309 8.0 20.9 0.03 0.00 0.69 100 997.4
20260905133850 21 205 9.7 22.5 0.03 0.00 0.69 100 995.8